#timestamp,LO_Frequency,Hit,StdDev 
1458777615.4,286046990.1,N
1458777635.2,286046993.2,N
1458777655.0,286046990.4,N
1458777655.9,286046990.4,N
1458777675.8,286046991.6,N
1458777695.6,286046990.5,N
1458777715.4,286046992.0,N
1458777735.2,286046992.6,N
1458777755.1,286046990.9,N
1458777756.0,286046990.9,N
1458777775.8,286046993.1,N
1458777795.7,286046990.8,Y
1458777815.5,286047002.7,P
1458777835.3,286047001.3,N
1458777855.1,286047003.4,N
1458777875.9,286047003.1,N
1458777895.7,286047002.6,N
1458777915.5,286047002.0,N
1458777935.4,286047002.2,N
1458777955.2,286047000.9,N
1458777975.0,286046999.9,N
1458777975.9,286046999.9,N
1458777995.8,286047002.7,N
1458778015.6,286047001.4,N
1458778035.4,286047004.0,N
1458778055.3,286047002.1,N
1458778075.1,286047002.3,N
1458778076.0,286047002.3,N
1458778095.8,286047002.1,N
1458778115.7,286047003.5,N
1458778135.5,286046998.5,N
1458778155.3,286046998.1,N
1458778175.2,286047001.8,N
1458778195.9,286047004.2,N
1458778215.7,286046998.2,N
1458778235.5,286046995.4,N
1458778255.4,286046995.1,N
1458778275.2,286046997.1,N
1458778295.0,286046997.9,N
1458778295.9,286046997.9,N
1458778315.8,286046995.7,N
1458778335.6,286046996.1,N
1458778355.4,286046999.4,N
1458778375.3,286047000.9,N
1458778395.1,286046995.4,N
1458778396.0,286046995.4,N
1458778415.8,286046994.0,N
1458778435.7,286046993.4,N
1458778455.5,286046994.8,N
1458778475.3,286046993.6,N
1458778495.2,286046993.9,N
1458778515.9,286046990.8,N
1458778535.7,286046992.6,N
1458778555.5,286046990.9,N
1458778575.4,286046991.0,N
1458778595.2,286046990.7,N
1458778615.0,286046990.1,N
1458778615.9,286046990.1,N
1458778635.8,286046993.5,N
1458778655.6,286046990.2,N
1458778675.4,286046990.8,N
1458778695.3,286046989.1,N
1458778715.1,286046987.8,Y
1458778735.8,286046990.6,P
1458778755.7,286046990.5,P
1458778775.5,286046989.9,P
1458778795.3,286046989.0,Y
1458778815.2,286046998.6,P
1458778835.9,286046998.9,N
1458778855.7,286046995.4,N
1458778875.6,286046999.4,N
1458778895.4,286046998.2,N
1458778915.2,286047000.8,N
1458778935.1,286047002.2,N
1458778936.0,286047002.2,N
1458778955.8,286047004.9,N
1458778975.6,286047005.7,N
1458778995.5,286047006.8,N
1458779015.3,286047007.1,N
1458779035.1,286047008.7,N
1458779055.8,286047008.7,N
1458779075.7,286047005.7,N
1458779095.5,286047006.8,N
1458779115.3,286047008.4,N
1458779135.2,286047006.5,N
1458779155.9,286047008.6,N
1458779175.7,286047013.6,N
1458779195.6,286047012.3,N
1458779215.4,286047013.4,N
1458779235.2,286047013.8,N
1458779255.1,286047012.0,N
1458779256.0,286047012.0,N
1458779275.8,286047013.5,N
1458779295.6,286047014.4,N
1458779315.5,286047012.8,N
1458779335.3,286047014.6,N
1458779355.1,286047014.4,N
1458779375.8,286047014.9,N
1458779395.7,286047016.6,N
1458779415.5,286047013.0,N
1458779435.4,286047016.7,Y
1458779455.2,286047004.7,P
1458779475.0,286047008.7,P
1458779475.9,286047008.7,P
1458779495.8,286047012.3,Y
1458779515.6,286047005.9,P
1458779535.4,286047004.5,P
1458779555.3,286047005.4,P
1458779575.1,286047002.2,N
1458779576.0,286047002.2,N
1458779595.8,286047003.4,N
1458779615.6,286047004.2,N
1458779635.5,286047004.7,N
1458779655.3,286047004.5,N
1458779675.2,286047010.1,Y
1458779695.9,286047001.4,P
1458779715.7,286047007.4,P
1458779735.5,286047010.1,P
1458779755.4,286047011.4,Y
1458779775.2,286047011.1,P
1458779795.0,286047009.7,P
1458779796.0,286047009.7,P
1458779815.8,286047013.4,Y
1458779835.6,286047004.0,P
1458779855.5,286047001.7,N
1458779875.3,286047008.0,N
1458779895.1,286047010.9,Y
1458779915.9,286047002.9,P
1458779935.7,286047001.9,N
1458779955.5,286047001.6,N
1458779975.3,286047001.0,N
1458779995.2,286046995.2,N
1458780015.0,286046995.1,N
1458780015.9,286046995.1,N
1458780035.7,286046996.7,N
1458780055.6,286046995.9,N
1458780075.4,286046992.9,N
1458780095.2,286046994.5,N
1458780115.1,286046991.2,N
1458780116.0,286046991.2,N
1458780135.8,286046995.7,N
1458780155.6,286046992.2,N
1458780175.5,286046993.3,N
1458780195.3,286046993.7,N
1458780215.1,286046993.9,N
1458780235.9,286046994.0,N
1458780255.7,286046992.4,N
1458780275.5,286046991.7,N
1458780295.3,286046994.1,N
1458780315.2,286046992.9,N
1458780335.0,286046987.1,Y
1458780335.9,286046987.1,P
1458780355.8,286046992.0,N
1458780375.6,286046994.2,N
1458780395.4,286046995.9,N
1458780415.2,286046997.5,N
1458780435.1,286046993.3,N
1458780436.0,286046993.3,N
1458780455.8,286046994.6,N
1458780475.7,286046990.5,Y
1458780495.5,286047000.7,P
1458780515.3,286046998.7,N
1458780535.1,286046999.4,N
1458780555.9,286046996.7,N
1458780575.7,286046999.5,N
1458780595.5,286046999.1,N
1458780615.4,286046996.8,N
1458780635.2,286046998.8,N
1458780655.0,286046996.9,N
1458780655.9,286046996.9,N
1458780675.8,286046999.5,N
1458780695.6,286046999.3,N
1458780715.4,286046993.4,Y
1458780735.3,286046997.2,P
1458780755.1,286046999.2,N
1458780756.0,286046999.2,N
1458780775.8,286047001.1,N
1458780795.7,286047003.7,N
1458780815.5,286047003.6,N
1458780835.3,286047003.9,N
1458780855.2,286047004.4,N
1458780875.9,286047001.6,N
1458780895.7,286047005.8,N
1458780915.5,286047004.0,N
1458780935.4,286047001.0,N
1458780955.2,286046998.2,N
1458780975.0,286047002.7,N
1458780975.9,286047002.7,N
1458780995.8,286046999.2,N
1458781015.6,286046999.1,N
1458781035.4,286046996.6,N
1458781055.3,286046997.9,N
1458781075.1,286046998.6,N
1458781076.0,286046998.6,N
1458781095.8,286046999.0,N
1458781115.7,286047000.2,N
1458781135.5,286047001.5,N
1458781155.3,286047003.5,N
1458781175.2,286047001.3,N
1458781195.9,286047003.8,N
